Overview Statistics Trail Chart Weather Telemetry Raw packets
 

This is the latest recevied weather packets stored in our database for station/object KI5UTS-13. If no packets are shown the sender has not sent any weather packets the latest 10 day(s).

<< 5 6 7 8 9 10 11 >>
Time Temp. Humidity Pressure Rain* Wind** Luminosity Snow
1788529366 23.89° C 99% 1017.1 hPa 6.6 mm - 12 W/m² -
1788529061 23.89° C 99% 1017 hPa 4.32 mm - 9 W/m² -
1788528757 23.89° C 99% 1017.2 hPa 3.05 mm - 6 W/m² -
1788528456 23.89° C 99% 1017.2 hPa 4.83 mm - 6 W/m² -
1788528152 23.89° C 99% 1017 hPa 3.05 mm - 10 W/m² -
1788527851 23.89° C 99% 1017 hPa 1.27 mm - 10 W/m² -
1788527547 23.89° C 99% 1016.7 hPa 1.27 mm - 8 W/m² -
1788527241 23.89° C 99% 1016.6 hPa 0 mm - 11 W/m² -
1788526940 23.89° C 99% 1016.6 hPa 0 mm - 12 W/m² -
1788526636 23.89° C 99% 1016.8 hPa 0 mm - 12 W/m² -
1788526362 23.89° C 99% 1017 hPa 0 mm - 11 W/m² -
1788526026 23.89° C 99% 1016.7 hPa 0 mm - 16 W/m² -
1788525722 23.89° C 98% 1016.7 hPa 0 mm - 16 W/m² -
1788525417 23.89° C 98% 1016.6 hPa 0 mm - 13 W/m² -
1788525113 23.89° C 98% 1016.6 hPa 0 mm - 11 W/m² -
1788524813 23.89° C 98% 1016.7 hPa 0 mm - 14 W/m² -
1788524508 23.89° C 98% 1016.6 hPa 0 mm - 20 W/m² -
1788524203 23.89° C 98% 1016.5 hPa 0 mm - 21 W/m² -
1788523899 23.89° C 98% 1016.6 hPa 0 mm - 20 W/m² -
1788523607 23.89° C 98% 1016.5 hPa 0 mm - 20 W/m² -
1788523291 23.89° C 98% 1016.4 hPa 0 mm - 19 W/m² -
1788522991 23.89° C 98% 1016.4 hPa 0 mm - 14 W/m² -
1788522686 23.89° C 98% 1016.3 hPa 0 mm - 10 W/m² -
1788522380 23.89° C 98% 1016.4 hPa 0 mm - 7 W/m² -
1788522074 23.89° C 98% 1016 hPa 0 mm - 3 W/m² -

* Rain latest hour (hover to see other rain measurements)
** Current wind speed in m/s (hover to see current wind gust speed)